Tracking 28522 objects as of 28-Feb-2024
HD Live streaming from Space Station
objects crossing your sky now

GLOBAL-8

Track GLOBAL-8 now!
10-day predictions


NORAD ID: 46089
Int'l Code: 2020-055BQ
Perigee: 323.1 km
Apogee: 329.0 km
Inclination: 53.0 °
Period: 90.9 minutes
Semi major axis: 6697 km
RCS: Unknown
Launch date: August 7, 2020
Source: United States (US)
Launch site: AIR FORCE EASTERN TEST RANGE (AFETR)
Your satellite tracking list
Your tracking list is empty




NASA's NSSDC Master Catalog

Two Line Element Set (TLE):
1 46089U 20055BQ  24059.09430659  .00212200  00000-0  90563-3 0  9998
2 46089  52.9786  97.5451 0004365  24.0178 336.1047 15.84074721207144
Source of the keplerian elements: AFSPC